KE8URB Weather Reports


Display with metric or nautical units.
time (UTC)temp
F
wind
direction
speed
MPH
gust
MPH
rain 1hr
in
rain 24hr
in
rain mn
in
humidity
%
barometer
mb
20260510093210 52 251 0.0 0.0 0.00 0.03 0.03 99 1011.4
20260510092707 52 297 2.0 2.0 0.00 0.03 0.03 99 1011.4
20260510092202 52 340 0.0 1.0 0.00 0.03 0.03 99 1011.3
20260510091658 52 294 2.0 2.0 0.00 0.03 0.03 99 1011.2
20260510091154 52 287 0.0 0.0 0.00 0.03 0.03 99 1011.0
20260510090651 52 303 0.0 0.0 0.00 0.03 0.03 99 1011.0
20260510090148 52 250 0.0 1.0 0.00 0.03 0.03 99 1010.7
20260510085643 52 265 0.0 0.0 0.00 0.03 0.03 99 1010.8
20260510085138 52 255 0.0 0.0 0.00 0.03 0.03 99 1010.5
20260510084635 52 267 2.0 2.0 0.00 0.03 0.03 99 1010.6
20260510084132 52 187 0.0 0.0 0.00 0.03 0.03 99 1010.6
20260510083628 51 139 0.0 0.0 0.00 0.03 0.03 99 1010.4
20260510083125 51 120 0.0 0.0 0.00 0.03 0.03 99 1010.4
20260510082621 51 120 0.0 0.0 0.00 0.03 0.03 99 1010.2
20260510082118 52 120 0.0 0.0 0.00 0.03 0.03 99 1010.3
20260510081617 52 119 0.0 0.0 0.00 0.03 0.03 99 1010.2
20260510081114 52 119 0.0 0.0 0.00 0.03 0.03 99 1010.4
20260510080613 52 180 0.0 0.0 0.00 0.03 0.03 99 1010.3
20260510080110 52 181 0.0 0.0 0.00 0.03 0.03 99 1010.4
20260510075607 52 207 0.0 0.0 0.00 0.03 0.03 99 1010.4
20260510075104 52 39 0.0 0.0 0.00 0.03 0.03 99 1010.2
20260510074602 52 103 0.0 0.0 0.00 0.03 0.03 99 1010.0
20260510074057 53 4 0.0 0.0 0.00 0.03 0.03 99 1009.9
20260510073553 53 228 0.0 0.0 0.00 0.03 0.03 99 1010.1
20260510073051 53 351 2.0 2.0 0.00 0.03 0.03 99 1010.0
20260510072547 52 293 3.0 3.0 0.00 0.03 0.03 99 1010.0
20260510072043 52 276 0.0 0.0 0.00 0.03 0.03 99 1009.8
20260510071539 52 272 0.0 0.0 0.00 0.03 0.03 99 1009.8
20260510071037 53 251 0.0 0.0 0.00 0.03 0.03 99 1010.0
20260510070534 52 188 0.0 0.0 0.00 0.03 0.03 99 1009.8
20260510070031 53 179 0.0 0.0 0.00 0.03 0.03 99 1009.7
20260510065527 52 275 0.0 0.0 0.00 0.03 0.03 99 1009.6
20260510065023 53 197 1.0 2.0 0.00 0.03 0.03 99 1009.5
20260510064520 53 175 0.0 0.0 0.00 0.03 0.03 99 1009.8
20260510064017 53 168 0.0 0.0 0.00 0.03 0.03 99 1009.6
20260510063513 53 277 1.0 1.0 0.00 0.03 0.03 99 1009.8
20260510063011 54 192 0.0 0.0 0.00 0.03 0.03 99 1009.5
20260510062506 54 119 0.0 0.0 0.00 0.03 0.03 99 1009.7
20260510062001 54 121 0.0 0.0 0.00 0.03 0.03 98 1009.7
20260510061458 54 122 0.0 0.0 0.00 0.03 0.03 98 1009.6
20260510060955 55 154 0.0 0.0 0.00 0.03 0.03 98 1009.6
20260510060452 55 193 3.0 3.0 0.00 0.03 0.03 98 1009.6
20260510055948 55 160 2.0 2.0 0.00 0.03 0.03 99 1009.7
20260510055444 55 165 0.0 0.0 0.00 0.03 0.03 99 1009.6
20260510054942 54 176 0.0 0.0 0.00 0.03 0.03 99 1009.8
20260510054437 55 189 2.0 2.0 0.00 0.03 0.03 99 1009.8
20260510053932 55 62 0.0 0.0 0.00 0.03 0.03 99 1009.9
20260510053428 55 37 0.0 0.0 0.00 0.03 0.03 99 1010.0
20260510052924 55 282 0.0 0.0 0.00 0.03 0.03 99 1010.2
20260510052420 55 192 0.0 0.0 0.12 0.03 0.03 99 1010.3
20260510051917 55 263 1.0 1.0 0.17 0.03 0.03 99 1010.6
20260510051413 55 251 1.0 2.0 0.05 0.01 0.01 99 1010.7
20260510050910 55 263 3.0 5.0 0.00 0.00 0.00 99 1010.8
20260510050407 55 263 1.0 2.0 0.00 0.00 0.00 99 1010.8
20260510045904 54 323 2.0 2.0 0.00 0.00 0.00 99 1010.3
20260510045401 54 68 0.0 0.0 0.00 0.00 0.00 99 1009.6
20260510044858 54 68 0.0 0.0 0.00 0.00 0.00 99 1009.4
20260510044354 54 68 0.0 0.0 0.00 0.00 0.00 99 1009.5
20260510043851 54 68 0.0 0.0 0.00 0.00 0.00 99 1009.4
20260510043347 54 69 0.0 0.0 0.00 0.00 0.00 99 1009.2
20260510042845 54 68 0.0 0.0 0.00 0.00 0.00 99 1009.5
20260510042340 54 71 0.0 0.0 0.00 0.00 0.00 99 1009.6
20260510041837 54 81 0.0 0.0 0.00 0.00 0.00 99 1009.4
20260510041334 55 81 0.0 0.0 0.00 0.00 0.00 99 1009.6
20260510040832 55 57 1.0 1.0 0.00 0.00 0.00 99 1009.7
20260510040328 55 102 0.0 0.0 0.00 0.00 0.00 99 1009.7
20260510035824 55 112 0.0 0.0 0.00 0.24 0.24 99 1009.6
20260510035320 55 32 1.0 1.0 0.00 0.24 0.24 99 1009.5
20260510034815 55 5 0.0 0.0 0.00 0.24 0.24 99 1009.3
20260510034313 55 65 0.0 0.0 0.00 0.24 0.24 99 1009.3
20260510033809 55 77 0.0 0.0 0.07 0.24 0.24 99 1009.4
20260510033307 55 20 2.0 3.0 0.07 0.24 0.24 99 1009.2
20260510032803 56 44 3.0 3.0 0.00 0.23 0.23 99 1009.3
20260510032300 56 73 0.0 0.0 0.00 0.23 0.23 99 1009.1
20260510031755 56 61 0.0 0.0 0.00 0.23 0.23 99 1009.4
20260510031251 56 66 0.0 0.0 0.00 0.23 0.23 99 1009.0
20260510030751 55 68 0.0 0.0 0.00 0.23 0.23 99 1009.1
20260510030248 56 54 0.0 0.0 0.00 0.23 0.23 99 1008.8
20260510025745 56 57 0.0 0.0 0.00 0.23 0.23 99 1008.9
20260510025243 56 66 1.0 1.0 0.00 0.23 0.23 99 1009.0
20260510024740 56 69 0.0 0.0 0.00 0.23 0.23 99 1008.9
20260510024236 56 93 0.0 0.0 0.00 0.23 0.23 99 1008.8
20260510023732 56 77 0.0 0.0 0.00 0.23 0.23 99 1008.9
20260510023230 56 85 0.0 0.0 0.00 0.23 0.23 99 1009.1
20260510022726 56 85 0.0 0.0 0.00 0.23 0.23 99 1009.1
20260510022225 55 78 0.0 0.0 0.00 0.23 0.23 99 1009.1
20260510021720 55 141 0.0 0.0 0.00 0.23 0.23 99 1008.9
20260510021219 55 142 0.0 0.0 0.00 0.23 0.23 99 1008.9
20260510020713 55 150 0.0 0.0 0.00 0.23 0.23 99 1009.0
20260510020208 55 152 0.0 0.0 0.00 0.23 0.23 99 1009.2
20260510015705 56 161 1.0 1.0 0.00 0.23 0.23 99 1009.2
20260510015201 56 95 0.0 0.0 0.00 0.23 0.23 98 1009.0
20260510014701 56 94 0.0 1.0 0.00 0.23 0.23 98 1009.1
20260510014159 56 136 1.0 1.0 0.00 0.23 0.23 98 1008.9
20260510013654 57 88 0.0 0.0 0.05 0.23 0.23 97 1009.1
20260510013150 57 89 0.0 0.0 0.17 0.23 0.23 97 1008.8
20260510012649 56 127 0.0 0.0 0.31 0.22 0.22 96 1009.0
20260510012145 57 181 0.0 1.0 0.42 0.20 0.20 96 1009.3
20260510011641 57 329 0.0 1.0 0.42 0.17 0.17 95 1009.0
20260510011137 57 184 2.0 3.0 0.50 0.13 0.13 93 1009.0
20260510010633 59 277 2.0 2.0 0.31 0.10 0.10 89 1008.9
20260510010130 61 290 5.0 8.0 0.00 0.05 0.05 81 1008.5
20260510005625 63 301 3.0 5.0 0.00 0.05 0.05 75 1008.1
20260510005123 65 319 5.0 8.0 0.00 0.05 0.05 66 1007.6
20260510004621 65 175 2.0 3.0 0.00 0.05 0.05 66 1006.6
20260510004119 65 176 5.0 7.0 0.00 0.05 0.05 65 1006.4
20260510003616 66 182 5.0 7.0 0.00 0.05 0.05 64 1006.5
20260510003111 65 192 3.0 3.0 0.00 0.05 0.05 64 1006.6
20260510002606 65 184 9.0 10.0 0.00 0.05 0.05 64 1006.8
20260510002103 65 224 5.0 9.0 0.00 0.05 0.05 65 1006.9
20260510001601 65 180 9.0 10.0 0.00 0.05 0.05 65 1006.6
20260510001059 65 199 9.0 10.0 0.00 0.05 0.05 65 1006.7
20260510000559 65 184 6.0 7.0 0.00 0.05 0.05 66 1006.7
20260510000056 66 172 6.0 8.0 0.00 0.05 0.05 65 1006.8
20260509235553 65 194 7.0 11.0 0.00 0.05 0.05 65 1006.8
20260509235050 66 195 4.0 7.0 0.00 0.05 0.05 67 1006.7
20260509234546 66 190 4.0 5.0 0.00 0.05 0.05 65 1006.6
20260509234044 67 213 5.0 7.0 0.00 0.05 0.05 65 1006.4
20260509233541 67 184 5.0 7.0 0.00 0.05 0.05 64 1006.6
20260509233038 68 190 6.0 9.0 0.00 0.05 0.05 63 1006.5
20260509232535 68 171 5.0 6.0 0.00 0.05 0.05 63 1006.5
20260509232032 68 197 7.0 9.0 0.00 0.05 0.05 63 1006.5
20260509231528 68 177 8.0 11.0 0.00 0.05 0.05 62 1006.3
20260509231026 68 186 4.0 5.0 0.00 0.05 0.05 63 1006.4
20260509230522 68 172 6.0 7.0 0.00 0.05 0.05 62 1006.2
20260509230019 68 187 5.0 9.0 0.00 0.05 0.05 62 1006.2
20260509225514 68 164 7.0 9.0 0.00 0.05 0.05 62 1006.1
20260509225010 68 213 7.0 10.0 0.00 0.05 0.05 61 1005.9
20260509224506 68 209 5.0 8.0 0.00 0.05 0.05 62 1006.1
20260509224003 68 193 6.0 7.0 0.00 0.05 0.05 60 1006.2
20260509223500 68 198 12.0 16.0 0.00 0.05 0.05 61 1006.3
20260509222958 68 192 9.0 14.0 0.00 0.05 0.05 61 1006.2
20260509222453 68 208 5.0 7.0 0.00 0.05 0.05 62 1006.3
20260509221949 68 187 15.0 18.0 0.00 0.05 0.05 61 1006.4
20260509221445 68 159 11.0 14.0 0.00 0.05 0.05 60 1006.5
20260509220941 68 179 7.0 10.0 0.00 0.05 0.05 63 1006.4
20260509220437 69 186 11.0 14.0 0.00 0.05 0.05 62 1006.3
20260509215934 69 203 6.0 8.0 0.00 0.05 0.05 64 1006.4
20260509215429 69 223 8.0 9.0 0.00 0.05 0.05 64 1006.5
20260509214927 68 182 6.0 8.0 0.00 0.05 0.05 62 1006.6
20260509214424 68 186 11.0 14.0 0.00 0.05 0.05 62 1006.5
20260509213921 68 207 10.0 14.0 0.00 0.05 0.05 61 1006.5
20260509213416 69 232 7.0 9.0 0.00 0.05 0.05 62 1006.5
20260509212914 68 196 8.0 13.0 0.00 0.05 0.05 63 1006.5
20260509212412 68 209 14.0 17.0 0.00 0.05 0.05 62 1006.5
20260509211908 68 200 12.0 14.0 0.00 0.05 0.05 62 1006.8
20260509211403 69 170 11.0 13.0 0.00 0.05 0.05 64 1006.8
20260509210900 69 214 4.0 6.0 0.00 0.05 0.05 65 1006.7
20260509210358 68 193 8.0 9.0 0.00 0.05 0.05 65 1006.9
20260509205858 68 183 8.0 10.0 0.00 0.05 0.05 63 1006.8
20260509205352 68 188 9.0 11.0 0.00 0.05 0.05 63 1006.8
20260509204849 68 175 11.0 15.0 0.00 0.05 0.05 63 1006.8
20260509204345 69 167 5.0 7.0 0.00 0.05 0.05 65 1006.9
20260509203842 69 189 3.0 6.0 0.00 0.05 0.05 64 1006.7
20260509203338 68 247 3.0 3.0 0.00 0.05 0.05 64 1006.8
20260509202835 68 163 8.0 13.0 0.00 0.05 0.05 64 1006.8
20260509202331 68 162 9.0 10.0 0.00 0.05 0.05 62 1007.1
20260509201831 68 179 6.0 8.0 0.00 0.05 0.05 66 1006.9
20260509201327 68 196 8.0 10.0 0.00 0.05 0.05 65 1007.0
20260509200824 68 194 6.0 8.0 0.00 0.05 0.05 66 1007.1
20260509200319 68 200 5.0 8.0 0.00 0.05 0.05 66 1007.4
20260509195816 69 184 6.0 9.0 0.00 0.05 0.05 65 1007.3
20260509195316 68 218 6.0 8.0 0.00 0.05 0.05 67 1007.4
20260509194816 68 198 4.0 7.0 0.00 0.05 0.05 67 1007.7
20260509194312 67 203 11.0 13.0 0.00 0.05 0.05 66 1007.6
20260509193809 67 180 7.0 8.0 0.00 0.05 0.05 68 1007.9
20260509193309 68 183 7.0 10.0 0.00 0.05 0.05 69 1008.0
20260509192806 67 229 3.0 5.0 0.00 0.05 0.05 69 1007.7
20260509192305 65 279 3.0 3.0 0.00 0.05 0.05 69 1008.0
20260509191756 65 192 9.0 11.0 0.00 0.05 0.05 68 1007.9
20260509191253 66 193 6.0 8.0 0.00 0.05 0.05 70 1008.1
20260509190749 66 178 9.0 15.0 0.00 0.05 0.05 71 1008.2
20260509190246 66 201 9.0 13.0 0.00 0.05 0.05 71 1008.0
20260509185744 67 207 9.0 10.0 0.00 0.05 0.05 70 1008.1
20260509185240 66 225 5.0 6.0 0.00 0.05 0.05 72 1008.1
20260509184737 66 228 5.0 6.0 0.00 0.05 0.05 75 1008.0
20260509184235 66 164 7.0 10.0 0.00 0.05 0.05 72 1008.1
20260509183731 65 284 7.0 13.0 0.00 0.05 0.05 75 1008.3
20260509183226 65 210 10.0 14.0 0.00 0.05 0.05 73 1008.2
20260509182722 64 205 7.0 8.0 0.00 0.05 0.05 74 1008.4
20260509182220 64 165 5.0 7.0 0.00 0.05 0.05 76 1008.2
20260509181717 64 191 8.0 10.0 0.00 0.05 0.05 75 1008.2
20260509181214 64 231 2.0 2.0 0.00 0.05 0.05 77 1008.5
20260509180711 64 203 11.0 16.0 0.00 0.05 0.05 77 1008.4
20260509180207 64 218 7.0 9.0 0.00 0.05 0.05 76 1008.5
20260509175704 64 203 6.0 8.0 0.00 0.05 0.05 78 1008.4
20260509175201 63 166 5.0 7.0 0.00 0.05 0.05 78 1008.4
20260509174656 62 177 3.0 5.0 0.00 0.05 0.05 80 1008.4
20260509174157 64 184 6.0 10.0 0.00 0.05 0.05 80 1008.4
20260509173653 62 183 8.0 13.0 0.00 0.05 0.05 82 1008.5
20260509173149 61 190 10.0 11.0 0.00 0.05 0.05 81 1008.5
20260509172645 61 292 3.0 5.0 0.00 0.05 0.05 82 1008.4
20260509172142 62 215 7.0 9.0 0.00 0.05 0.05 82 1008.6
20260509171637 61 163 7.0 9.0 0.00 0.05 0.05 84 1008.6
20260509171134 60 255 4.0 5.0 0.00 0.05 0.05 85 1008.7
20260509170631 60 180 7.0 8.0 0.00 0.05 0.05 86 1008.8
20260509170127 61 171 5.0 7.0 0.00 0.05 0.05 85 1008.9
20260509165625 60 218 8.0 9.0 0.00 0.05 0.05 85 1008.7
20260509165121 60 196 4.0 5.0 0.00 0.05 0.05 87 1008.8
20260509164617 59 176 6.0 10.0 0.00 0.05 0.05 88 1008.8
20260509164113 59 211 7.0 9.0 0.00 0.05 0.05 87 1008.7
20260509163611 59 200 5.0 8.0 0.00 0.05 0.05 88 1008.5
20260509163106 60 192 3.0 5.0 0.00 0.05 0.05 89 1008.6
20260509162604 59 197 9.0 10.0 0.00 0.05 0.05 87 1008.6
20260509162100 60 203 7.0 13.0 0.00 0.05 0.05 89 1008.7
20260509161557 59 201 9.0 11.0 0.00 0.05 0.05 88 1008.8
20260509161056 58 222 3.0 5.0 0.00 0.05 0.05 90 1008.7
20260509160553 58 198 8.0 9.0 0.00 0.05 0.05 90 1008.7
20260509160048 58 183 4.0 7.0 0.00 0.05 0.05 90 1008.7
20260509155545 57 243 5.0 6.0 0.00 0.05 0.05 91 1008.6
20260509155041 57 252 7.0 8.0 0.00 0.05 0.05 91 1008.5
20260509154537 57 195 3.0 5.0 0.00 0.05 0.05 91 1008.7
20260509154035 57 193 5.0 7.0 0.00 0.05 0.05 91 1008.4
20260509153532 57 198 2.0 2.0 0.00 0.05 0.05 90 1008.5
20260509153028 58 188 3.0 3.0 0.00 0.05 0.05 92 1008.3
20260509152524 57 173 3.0 3.0 0.00 0.05 0.05 93 1008.2
20260509152021 57 208 2.0 2.0 0.00 0.05 0.05 93 1008.2
20260509151518 56 212 3.0 3.0 0.00 0.05 0.05 93 1008.2
20260509151016 56 186 4.0 6.0 0.00 0.05 0.05 93 1008.2
20260509150513 56 199 1.0 2.0 0.00 0.05 0.05 93 1008.2
20260509150011 56 212 5.0 6.0 0.00 0.05 0.05 93 1008.0
20260509145507 56 204 5.0 6.0 0.00 0.05 0.05 94 1008.2
20260509145002 56 192 3.0 3.0 0.00 0.05 0.05 94 1008.3
20260509144459 56 196 3.0 5.0 0.00 0.05 0.05 95 1008.1
20260509143956 55 226 3.0 6.0 0.00 0.05 0.05 96 1008.2
20260509143453 54 203 6.0 8.0 0.00 0.05 0.05 97 1008.3
20260509142950 55 189 4.0 5.0 0.00 0.05 0.05 97 1008.3
20260509142446 54 179 4.0 5.0 0.00 0.05 0.05 97 1008.4
20260509141941 54 191 5.0 7.0 0.00 0.05 0.05 97 1008.4
20260509141438 54 177 2.0 2.0 0.00 0.05 0.05 98 1008.3
20260509140935 54 188 4.0 5.0 0.00 0.05 0.05 98 1008.2
20260509140431 54 187 3.0 5.0 0.00 0.05 0.05 99 1008.4
20260509135930 54 190 4.0 6.0 0.00 0.05 0.05 99 1008.4
20260509135427 53 206 3.0 3.0 0.00 0.05 0.05 99 1008.3
20260509134924 53 192 7.0 8.0 0.00 0.05 0.05 99 1008.3
20260509134422 53 192 3.0 3.0 0.00 0.05 0.05 99 1008.3
20260509133919 53 200 5.0 6.0 0.00 0.05 0.05 99 1008.4
20260509133415 53 182 1.0 1.0 0.00 0.05 0.05 99 1008.7
20260509132914 53 279 2.0 2.0 0.00 0.05 0.05 99 1008.8
20260509132412 53 179 1.0 1.0 0.00 0.05 0.05 99 1008.6
20260509131908 53 200 3.0 5.0 0.00 0.05 0.05 99 1008.5
20260509131405 52 189 3.0 3.0 0.00 0.05 0.05 99 1008.5
20260509130902 52 239 1.0 2.0 0.00 0.05 0.05 99 1008.5
20260509130357 52 225 2.0 3.0 0.00 0.05 0.05 99 1008.6
20260509125855 52 268 2.0 2.0 0.00 0.05 0.05 99 1008.5
20260509125351 52 192 3.0 5.0 0.00 0.05 0.05 99 1008.8
20260509124847 52 172 4.0 5.0 0.00 0.05 0.05 99 1008.7
20260509124344 52 291 4.0 5.0 0.00 0.05 0.05 99 1008.6
20260509123842 52 182 4.0 6.0 0.00 0.05 0.05 99 1008.4
20260509123339 52 197 5.0 6.0 0.00 0.05 0.05 99 1008.4
20260509122834 52 173 7.0 7.0 0.00 0.05 0.05 99 1008.5
20260509122332 52 179 8.0 8.0 0.05 0.05 0.05 99 1008.7
20260509121829 51 185 4.0 5.0 0.05 0.05 0.05 99 1008.6
20260509121326 51 187 2.0 2.0 0.00 0.04 0.04 99 1008.5
20260509120824 51 174 5.0 6.0 0.00 0.04 0.04 99 1008.6
20260509120321 51 219 5.0 6.0 0.00 0.04 0.04 99 1008.5
20260509115820 51 174 4.0 5.0 0.00 0.04 0.04 99 1008.9
20260509115316 51 192 5.0 6.0 0.00 0.04 0.04 99 1008.8
20260509114814 51 194 5.0 5.0 0.00 0.04 0.04 99 1008.9
20260509114313 51 219 8.0 8.0 0.00 0.04 0.04 99 1008.7
20260509113812 51 197 5.0 6.0 0.00 0.04 0.04 99 1008.8
20260509113308 51 188 4.0 5.0 0.00 0.04 0.04 99 1008.6
20260509112805 51 199 5.0 6.0 0.00 0.04 0.04 99 1008.7
20260509112306 51 183 6.0 9.0 0.00 0.04 0.04 99 1008.8
20260509111759 51 194 4.0 6.0 0.07 0.04 0.04 99 1008.8
20260509111255 51 155 4.0 6.0 0.07 0.04 0.04 99 1008.5
20260509110753 51 194 4.0 6.0 0.00 0.03 0.03 99 1008.5
20260509110249 52 186 5.0 6.0 0.00 0.03 0.03 99 1008.4
20260509105748 52 188 8.0 9.0 0.05 0.03 0.03 98 1008.4
20260509105245 52 188 8.0 9.0 0.05 0.03 0.03 97 1008.3
20260509104742 52 180 10.0 11.0 0.00 0.02 0.02 96 1008.3
20260509104239 52 216 4.0 6.0 0.00 0.02 0.02 96 1008.2
20260509103737 52 189 7.0 9.0 0.00 0.02 0.02 96 1008.1
20260509103234 52 195 6.0 7.0 0.00 0.02 0.02 97 1008.3
20260509102732 51 194 3.0 3.0 0.00 0.02 0.02 97 1008.3
20260509102229 51 176 3.0 3.0 0.00 0.02 0.02 96 1008.3
20260509101725 51 196 6.0 7.0 0.00 0.02 0.02 96 1008.1
20260509101221 51 196 4.0 5.0 0.00 0.02 0.02 96 1008.0
20260509100719 51 158 5.0 7.0 0.00 0.02 0.02 96 1008.2
20260509100216 51 194 5.0 6.0 0.00 0.02 0.02 96 1008.1
20260509095713 51 168 3.0 3.0 0.00 0.02 0.02 96 1008.0
20260509095210 51 181 3.0 5.0 0.00 0.02 0.02 95 1008.2
20260509094707 52 179 5.0 7.0 0.00 0.02 0.02 95 1008.4
20260509094204 52 178 3.0 3.0 0.00 0.02 0.02 95 1008.4
20260509093702 52 190 3.0 3.0 0.00 0.02 0.02 94 1008.6